BAW801 BIKF-EGLL

Flight info

Callsign BAW801
Flight time N/A
Altitude 39000
Route M078F390 DCT OSKUM DCT RATSU/N0438F390 DCT BARKU DCT ELBUS UL612 LAKEY DCT NUGRA NUGRA1H
Aircraft A20N/M-SDGHIJ1LRWXY/SB1

Departure

Time 2026-04-29 16:10
Airport Keflavik International Airport (BIKF)

Arrival

Time N/A
Airport London Heathrow Airport (EGLL)
Time Latitude Longitude Altitude Speed Heading
2026-04-29 15:50 63.99370 -22.62219 152 ft 0 kts 235°
2026-04-29 16:00 63.99375 -22.62204 147 ft 2 kts 233°
2026-04-29 16:00 63.99384 -22.62174 164 ft 2 kts 235°
2026-04-29 16:00 63.99394 -22.62144 164 ft 2 kts 234°
2026-04-29 16:01 63.99403 -22.62113 166 ft 2 kts 233°
2026-04-29 16:01 63.99413 -22.62084 167 ft 2 kts 229°
2026-04-29 16:01 63.99425 -22.62057 164 ft 2 kts 201°
2026-04-29 16:01 63.99437 -22.62055 164 ft 1 kts 160°
2026-04-29 16:02 63.99438 -22.62056 164 ft 0 kts 159°
2026-04-29 16:03 63.99429 -22.62047 164 ft 2 kts 156°
2026-04-29 16:03 63.99409 -22.62022 164 ft 5 kts 150°
2026-04-29 16:04 63.99358 -22.61995 164 ft 10 kts 179°
2026-04-29 16:04 63.99270 -22.61991 164 ft 14 kts 179°
2026-04-29 16:04 63.99184 -22.61963 163 ft 12 kts 141°
2026-04-29 16:04 63.99172 -22.61757 164 ft 16 kts 89°
2026-04-29 16:05 63.99171 -22.61483 165 ft 18 kts 89°
2026-04-29 16:05 63.99172 -22.61177 166 ft 20 kts 89°
2026-04-29 16:05 63.99173 -22.60897 167 ft 17 kts 90°
2026-04-29 16:05 63.99173 -22.60766 168 ft 0 kts 90°
2026-04-29 16:08 63.99173 -22.60721 169 ft 8 kts 90°
2026-04-29 16:08 63.99146 -22.60550 169 ft 14 kts 156°
2026-04-29 16:08 63.99108 -22.60543 168 ft 0 kts 179°
2026-04-29 16:09 63.98973 -22.60544 163 ft 51 kts 180°
2026-04-29 16:09 63.98406 -22.60549 152 ft 108 kts 180°
2026-04-29 16:10 63.97496 -22.60565 413 ft 143 kts 185°
2026-04-29 16:10 63.96451 -22.60619 1076 ft 157 kts 187°
2026-04-29 16:10 63.95315 -22.60524 1751 ft 171 kts 179°
2026-04-29 16:10 63.94075 -22.60106 2372 ft 188 kts 176°
2026-04-29 16:11 63.92738 -22.59457 3096 ft 205 kts 170°
2026-04-29 16:11 63.91343 -22.58166 3641 ft 233 kts 155°
2026-04-29 16:11 63.90079 -22.55600 3775 ft 254 kts 134°
2026-04-29 16:11 63.89247 -22.51964 3884 ft 264 kts 117°
2026-04-29 16:12 63.88643 -22.47990 3949 ft 268 kts 112°
2026-04-29 16:12 63.88331 -22.45272 3985 ft 270 kts 110°
2026-04-29 16:12 63.87770 -22.39740 3998 ft 268 kts 109°
2026-04-29 16:12 63.87359 -22.35606 4038 ft 271 kts 109°
2026-04-29 16:13 63.86936 -22.31407 4575 ft 274 kts 109°
2026-04-29 16:13 63.86507 -22.27190 5384 ft 275 kts 109°
2026-04-29 16:13 63.86191 -22.24122 5688 ft 277 kts 109°
2026-04-29 16:13 63.85748 -22.19858 5927 ft 278 kts 109°
2026-04-29 16:14 63.85302 -22.15585 6031 ft 279 kts 109°
2026-04-29 16:14 63.84854 -22.11312 6040 ft 279 kts 109°
2026-04-29 16:14 63.84404 -22.07041 6040 ft 279 kts 109°
2026-04-29 16:14 63.83955 -22.02771 6041 ft 278 kts 109°
2026-04-29 16:15 63.83592 -21.98447 6053 ft 281 kts 103°
2026-04-29 16:15 63.83358 -21.94052 6043 ft 281 kts 103°
2026-04-29 16:15 63.83124 -21.89715 6051 ft 281 kts 103°
2026-04-29 16:15 63.82878 -21.85246 6061 ft 283 kts 103°
2026-04-29 16:16 63.82633 -21.80841 6062 ft 282 kts 103°
2026-04-29 16:16 63.82387 -21.76440 6062 ft 282 kts 103°
2026-04-29 16:16 63.82142 -21.72096 6060 ft 281 kts 103°
2026-04-29 16:16 63.81891 -21.67697 6113 ft 283 kts 103°
2026-04-29 16:17 63.81636 -21.63251 6562 ft 287 kts 103°
2026-04-29 16:17 63.81377 -21.58756 6917 ft 288 kts 103°
2026-04-29 16:17 63.81119 -21.54260 7043 ft 289 kts 104°
2026-04-29 16:17 63.80858 -21.49754 7065 ft 288 kts 104°
2026-04-29 16:18 63.80595 -21.45257 7043 ft 287 kts 103°
2026-04-29 16:18 63.80330 -21.40735 7056 ft 287 kts 104°
2026-04-29 16:18 63.80062 -21.36225 7332 ft 291 kts 104°
2026-04-29 16:18 63.79791 -21.31662 8137 ft 295 kts 104°
2026-04-29 16:19 63.79514 -21.27016 8973 ft 302 kts 105°
2026-04-29 16:19 63.79228 -21.22254 9714 ft 309 kts 105°
2026-04-29 16:19 63.78934 -21.17356 9982 ft 312 kts 106°
2026-04-29 16:19 63.78647 -21.12592 10067 ft 312 kts 106°
2026-04-29 16:20 63.78352 -21.07719 10075 ft 313 kts 106°
2026-04-29 16:20 63.78026 -21.02612 10079 ft 345 kts 106°
2026-04-29 16:20 63.77499 -20.97238 10075 ft 352 kts 112°
2026-04-29 16:20 63.76882 -20.91953 10067 ft 341 kts 112°
2026-04-29 16:21 63.76305 -20.86897 10086 ft 323 kts 113°
2026-04-29 16:21 63.75745 -20.82047 10032 ft 316 kts 113°
2026-04-29 16:21 63.75184 -20.77285 10235 ft 316 kts 114°
2026-04-29 16:21 63.74588 -20.72361 10397 ft 336 kts 114°
2026-04-29 16:22 63.73949 -20.67114 10802 ft 354 kts 114°
2026-04-29 16:22 63.73010 -20.62090 11560 ft 341 kts 133°
2026-04-29 16:22 63.71423 -20.58363 12358 ft 322 kts 155°
2026-04-29 16:22 63.69457 -20.56288 13184 ft 306 kts 174°
2026-04-29 16:23 63.67390 -20.55847 13977 ft 295 kts 191°
2026-04-29 16:23 63.65434 -20.56915 14771 ft 287 kts 206°
2026-04-29 16:23 63.63755 -20.59274 15555 ft 285 kts 220°
2026-04-29 16:23 63.62275 -20.62270 16331 ft 287 kts 221°
2026-04-29 16:24 63.60786 -20.65262 17089 ft 288 kts 220°
2026-04-29 16:24 63.59296 -20.68239 17843 ft 289 kts 220°
2026-04-29 16:24 63.57791 -20.71243 18540 ft 290 kts 220°
2026-04-29 16:24 63.56152 -20.73859 19213 ft 291 kts 206°
2026-04-29 16:25 63.54167 -20.74899 19865 ft 302 kts 189°
2026-04-29 16:25 63.52039 -20.74139 20494 ft 323 kts 172°
2026-04-29 16:25 63.49968 -20.71873 21116 ft 338 kts 162°
2026-04-29 16:25 63.47960 -20.69049 21700 ft 343 kts 161°
2026-04-29 16:26 63.45945 -20.66161 22333 ft 343 kts 162°
2026-04-29 16:26 63.43914 -20.63378 22931 ft 343 kts 163°
2026-04-29 16:26 63.41857 -20.60686 23519 ft 343 kts 164°
2026-04-29 16:26 63.40452 -20.58896 23855 ft 344 kts 165°
2026-04-29 16:27 63.38364 -20.56278 24313 ft 346 kts 165°
2026-04-29 16:27 63.36254 -20.53658 24768 ft 348 kts 165°
2026-04-29 16:27 63.34130 -20.51029 25223 ft 350 kts 165°
2026-04-29 16:27 63.31994 -20.48389 25667 ft 353 kts 165°
2026-04-29 16:28 63.29836 -20.45723 26093 ft 355 kts 165°
2026-04-29 16:28 63.27669 -20.43049 26529 ft 357 kts 165°
2026-04-29 16:28 63.25487 -20.40360 26947 ft 360 kts 165°
2026-04-29 16:28 63.23293 -20.37661 27354 ft 362 kts 165°
2026-04-29 16:29 63.21083 -20.34947 27765 ft 364 kts 165°
2026-04-29 16:29 63.18859 -20.32220 28128 ft 366 kts 165°
2026-04-29 16:29 63.16664 -20.29535 28488 ft 369 kts 165°
2026-04-29 16:29 63.14369 -20.26731 28850 ft 371 kts 165°
2026-04-29 16:30 63.12135 -20.24006 29194 ft 373 kts 165°
2026-04-29 16:30 63.09860 -20.21237 29533 ft 375 kts 165°
2026-04-29 16:30 63.07570 -20.18454 29866 ft 377 kts 165°
2026-04-29 16:30 63.05266 -20.15661 30176 ft 379 kts 165°
2026-04-29 16:31 63.02948 -20.12856 30434 ft 382 kts 165°
2026-04-29 16:31 63.00612 -20.10035 30688 ft 384 kts 165°
2026-04-29 16:31 62.98261 -20.07201 30943 ft 387 kts 165°
2026-04-29 16:31 62.95898 -20.04354 31231 ft 388 kts 165°
2026-04-29 16:32 62.93529 -20.01504 31465 ft 388 kts 165°
2026-04-29 16:32 62.91158 -19.98655 31830 ft 388 kts 165°
2026-04-29 16:32 62.88792 -19.95818 32186 ft 387 kts 165°
2026-04-29 16:32 62.86430 -19.92993 32540 ft 387 kts 165°
2026-04-29 16:33 62.81715 -19.87373 33260 ft 385 kts 165°
2026-04-29 16:33 62.79364 -19.84579 33572 ft 384 kts 166°
2026-04-29 16:33 62.77017 -19.81796 33895 ft 384 kts 166°
2026-04-29 16:34 62.74669 -19.79017 34153 ft 384 kts 166°
2026-04-29 16:34 62.72314 -19.76241 34327 ft 386 kts 165°
2026-04-29 16:34 62.69947 -19.73456 34498 ft 388 kts 165°
2026-04-29 16:34 62.67573 -19.70666 34667 ft 389 kts 165°
2026-04-29 16:35 62.65184 -19.67862 34787 ft 390 kts 165°
2026-04-29 16:35 62.62795 -19.65060 34971 ft 391 kts 165°
2026-04-29 16:35 62.60392 -19.62253 35128 ft 393 kts 165°
2026-04-29 16:35 62.57981 -19.59441 35296 ft 394 kts 164°
2026-04-29 16:36 62.55606 -19.56673 35442 ft 396 kts 164°
2026-04-29 16:36 62.53131 -19.53792 35601 ft 397 kts 164°
2026-04-29 16:36 62.50689 -19.50954 35752 ft 399 kts 164°
2026-04-29 16:36 62.48242 -19.48114 35906 ft 400 kts 163°
2026-04-29 16:37 62.45785 -19.45269 36056 ft 401 kts 163°
2026-04-29 16:37 62.43322 -19.42422 36198 ft 403 kts 163°
2026-04-29 16:37 62.40847 -19.39566 36344 ft 404 kts 163°
2026-04-29 16:37 62.39215 -19.37686 36376 ft 405 kts 163°
2026-04-29 16:38 62.35890 -19.33862 36590 ft 405 kts 163°
2026-04-29 16:38 62.33390 -19.30994 36720 ft 406 kts 163°
2026-04-29 16:38 62.30892 -19.28133 36837 ft 407 kts 163°
2026-04-29 16:38 62.28390 -19.25272 36989 ft 408 kts 163°
2026-04-29 16:39 62.25883 -19.22414 37114 ft 409 kts 163°
2026-04-29 16:39 62.23374 -19.19558 37254 ft 409 kts 162°
2026-04-29 16:39 62.20851 -19.16691 37387 ft 410 kts 162°
2026-04-29 16:39 62.18324 -19.13826 37516 ft 411 kts 162°
2026-04-29 16:40 62.15798 -19.10966 37642 ft 411 kts 162°
2026-04-29 16:40 62.13265 -19.08105 37763 ft 412 kts 162°
2026-04-29 16:40 62.08204 -19.02398 38052 ft 411 kts 162°
2026-04-29 16:41 62.05673 -18.99556 38163 ft 411 kts 162°
2026-04-29 16:41 62.03136 -18.96714 38270 ft 412 kts 162°
2026-04-29 16:41 62.00598 -18.93875 38383 ft 412 kts 162°
2026-04-29 16:41 61.98055 -18.91034 38492 ft 413 kts 162°
2026-04-29 16:42 61.95512 -18.88199 38598 ft 413 kts 162°
2026-04-29 16:42 61.92964 -18.85364 38692 ft 414 kts 162°
2026-04-29 16:42 61.87861 -18.79701 38861 ft 414 kts 162°
2026-04-29 16:43 61.82754 -18.74054 39026 ft 413 kts 162°
2026-04-29 16:43 61.77657 -18.68440 39075 ft 413 kts 162°
2026-04-29 16:44 61.72566 -18.62854 39080 ft 412 kts 162°
2026-04-29 16:44 61.67472 -18.57287 39080 ft 412 kts 162°
2026-04-29 16:45 61.62373 -18.51736 39083 ft 412 kts 162°
2026-04-29 16:45 61.57278 -18.46208 39036 ft 412 kts 162°
2026-04-29 16:46 61.52205 -18.40715 39088 ft 410 kts 162°
2026-04-29 16:46 61.47241 -18.34621 39089 ft 418 kts 156°
2026-04-29 16:47 61.42412 -18.27837 39089 ft 418 kts 156°
2026-04-29 16:47 61.37585 -18.21071 39091 ft 418 kts 156°
2026-04-29 16:48 61.32744 -18.14337 39089 ft 418 kts 156°
2026-04-29 16:48 61.27909 -18.07642 39099 ft 417 kts 156°
2026-04-29 16:49 61.23076 -18.00981 39098 ft 417 kts 156°
2026-04-29 16:49 61.18234 -17.94341 39105 ft 417 kts 156°
2026-04-29 16:50 61.13384 -17.87716 39110 ft 417 kts 156°
2026-04-29 16:50 61.08528 -17.81108 39109 ft 417 kts 156°
2026-04-29 16:51 61.03708 -17.74574 39102 ft 416 kts 156°
2026-04-29 16:51 60.98828 -17.67983 39108 ft 417 kts 156°
2026-04-29 16:52 60.93970 -17.61446 39102 ft 416 kts 156°
2026-04-29 16:52 60.89130 -17.54953 39106 ft 415 kts 156°
2026-04-29 16:53 60.84281 -17.48480 39108 ft 416 kts 156°
2026-04-29 16:53 60.79432 -17.42026 39103 ft 416 kts 156°
2026-04-29 16:54 60.74592 -17.35618 39104 ft 419 kts 156°
2026-04-29 16:54 60.69676 -17.29123 39112 ft 421 kts 155°
2026-04-29 16:55 60.64980 -17.22931 39111 ft 420 kts 155°
2026-04-29 16:55 60.60047 -17.16465 39111 ft 422 kts 155°
2026-04-29 16:56 60.55116 -17.10020 39111 ft 421 kts 155°
2026-04-29 16:56 60.50181 -17.03595 39113 ft 421 kts 156°
2026-04-29 16:57 60.45245 -16.97192 39120 ft 421 kts 156°
2026-04-29 16:57 60.40312 -16.90816 39127 ft 420 kts 156°
2026-04-29 16:58 60.35358 -16.84442 39135 ft 425 kts 156°
2026-04-29 16:58 60.30355 -16.78019 39132 ft 421 kts 156°
2026-04-29 16:59 60.25416 -16.71706 39138 ft 421 kts 155°
2026-04-29 16:59 60.20491 -16.65437 39141 ft 422 kts 155°
2026-04-29 17:00 60.15501 -16.59101 39151 ft 421 kts 155°
2026-04-29 17:00 60.10545 -16.52835 39151 ft 421 kts 155°
2026-04-29 17:01 60.05584 -16.46584 39154 ft 421 kts 155°
2026-04-29 17:01 60.00621 -16.40356 39139 ft 420 kts 155°
2026-04-29 17:02 59.95664 -16.34158 39154 ft 421 kts 155°
2026-04-29 17:02 59.90700 -16.27970 39168 ft 421 kts 155°
2026-04-29 17:03 59.85727 -16.21794 39175 ft 421 kts 155°
2026-04-29 17:03 59.80753 -16.15637 39178 ft 422 kts 155°
2026-04-29 17:04 59.75768 -16.09492 39157 ft 422 kts 155°
2026-04-29 17:04 59.70784 -16.03370 39184 ft 422 kts 154°
2026-04-29 17:05 59.66137 -15.97676 39189 ft 422 kts 154°
2026-04-29 17:05 59.61142 -15.91580 39200 ft 422 kts 154°
2026-04-29 17:06 59.56245 -15.85624 39209 ft 423 kts 154°
2026-04-29 17:06 59.51238 -15.79556 39203 ft 423 kts 155°
2026-04-29 17:07 59.47071 -15.74525 39201 ft 422 kts 154°
2026-04-29 17:07 59.42028 -15.68453 39200 ft 422 kts 154°
2026-04-29 17:08 59.37014 -15.62435 39207 ft 423 kts 154°
2026-04-29 17:08 59.31990 -15.56429 39218 ft 423 kts 154°
2026-04-29 17:09 59.26959 -15.50435 39222 ft 424 kts 154°
2026-04-29 17:09 59.21924 -15.44457 39222 ft 423 kts 154°
2026-04-29 17:10 59.16884 -15.38493 39226 ft 424 kts 154°
2026-04-29 17:10 59.11837 -15.32543 39238 ft 424 kts 154°
2026-04-29 17:11 59.06788 -15.26610 39234 ft 424 kts 154°
2026-04-29 17:11 59.01797 -15.20767 39246 ft 425 kts 154°
2026-04-29 17:12 58.96667 -15.14783 39248 ft 424 kts 154°
2026-04-29 17:12 58.92460 -15.09890 39262 ft 425 kts 154°
2026-04-29 17:13 58.86539 -15.03025 39259 ft 425 kts 154°
2026-04-29 17:13 58.81466 -14.97167 39268 ft 425 kts 154°
2026-04-29 17:14 58.76394 -14.91331 39262 ft 424 kts 154°
2026-04-29 17:14 58.71325 -14.85519 39263 ft 424 kts 153°
2026-04-29 17:15 58.66260 -14.79729 39268 ft 423 kts 153°
2026-04-29 17:15 58.61191 -14.73954 39267 ft 423 kts 153°
2026-04-29 17:16 58.56128 -14.68207 39268 ft 423 kts 153°
2026-04-29 17:16 58.51063 -14.62477 39278 ft 423 kts 154°
2026-04-29 17:17 58.45993 -14.56762 39274 ft 422 kts 153°
2026-04-29 17:17 58.40935 -14.51078 39279 ft 422 kts 153°
2026-04-29 17:18 58.35869 -14.45404 39281 ft 422 kts 153°
2026-04-29 17:18 58.30840 -14.39791 39283 ft 422 kts 153°
2026-04-29 17:19 58.25843 -14.34229 39275 ft 421 kts 154°
2026-04-29 17:19 58.20782 -14.28617 39287 ft 421 kts 154°
2026-04-29 17:20 58.15729 -14.23033 39290 ft 421 kts 154°
2026-04-29 17:20 58.10669 -14.17460 39290 ft 421 kts 154°
2026-04-29 17:21 58.05606 -14.11902 39287 ft 421 kts 154°
2026-04-29 17:21 58.00506 -14.06323 39295 ft 421 kts 154°
2026-04-29 17:22 57.95477 -14.00837 39296 ft 421 kts 154°
2026-04-29 17:22 57.90371 -13.95287 39296 ft 421 kts 154°
2026-04-29 17:23 57.85302 -13.89796 39299 ft 421 kts 154°
2026-04-29 17:23 57.80224 -13.84312 39299 ft 421 kts 154°
2026-04-29 17:24 57.75150 -13.78852 39301 ft 421 kts 154°
2026-04-29 17:24 57.70073 -13.73409 39307 ft 420 kts 153°
2026-04-29 17:25 57.65221 -13.68219 39309 ft 420 kts 153°
2026-04-29 17:25 57.60147 -13.62810 39309 ft 420 kts 153°
2026-04-29 17:26 57.55070 -13.57415 39310 ft 420 kts 153°
2026-04-29 17:26 57.50002 -13.52048 39313 ft 419 kts 154°
2026-04-29 17:27 57.44924 -13.46693 39308 ft 419 kts 153°
2026-04-29 17:27 57.39867 -13.41373 39307 ft 418 kts 153°
2026-04-29 17:28 57.34766 -13.36022 39301 ft 418 kts 153°
2026-04-29 17:28 57.29718 -13.30744 39302 ft 418 kts 153°
2026-04-29 17:29 57.24651 -13.25464 39305 ft 418 kts 153°
2026-04-29 17:29 57.20439 -13.21090 39299 ft 418 kts 152°
2026-04-29 17:30 57.14511 -13.14944 39303 ft 418 kts 152°
2026-04-29 17:30 57.09436 -13.09695 39299 ft 419 kts 152°
2026-04-29 17:31 57.04354 -13.04457 39303 ft 419 kts 152°
2026-04-29 17:31 56.99259 -12.99245 39303 ft 419 kts 153°
2026-04-29 17:32 56.94146 -12.94071 39303 ft 420 kts 151°
2026-04-29 17:32 56.89052 -12.88795 39306 ft 421 kts 151°
2026-04-29 17:33 56.83943 -12.83552 39312 ft 422 kts 151°
2026-04-29 17:33 56.79075 -12.77560 39322 ft 423 kts 142°
2026-04-29 17:34 56.74670 -12.70413 39326 ft 424 kts 139°
2026-04-29 17:34 56.70363 -12.63272 39328 ft 425 kts 138°
2026-04-29 17:35 56.63791 -12.52485 39321 ft 423 kts 139°
2026-04-29 17:36 56.59415 -12.45347 39312 ft 423 kts 139°
2026-04-29 17:36 56.55030 -12.38217 39312 ft 423 kts 139°
2026-04-29 17:37 56.50645 -12.31110 39320 ft 423 kts 139°
2026-04-29 17:37 56.46224 -12.23967 39324 ft 423 kts 138°
2026-04-29 17:38 56.41824 -12.16883 39322 ft 424 kts 138°
2026-04-29 17:38 56.37417 -12.09809 39322 ft 424 kts 138°
2026-04-29 17:39 56.33004 -12.02748 39327 ft 424 kts 138°
2026-04-29 17:39 56.28585 -11.95702 39322 ft 424 kts 138°
2026-04-29 17:40 56.24163 -11.88675 39327 ft 424 kts 138°
2026-04-29 17:40 56.19734 -11.81655 39334 ft 424 kts 138°
2026-04-29 17:41 56.15307 -11.74661 39326 ft 424 kts 138°
2026-04-29 17:41 56.10875 -11.67682 39324 ft 424 kts 138°
2026-04-29 17:42 56.06444 -11.60728 39324 ft 424 kts 138°
2026-04-29 17:42 56.02011 -11.53796 39323 ft 422 kts 137°
2026-04-29 17:43 55.97609 -11.46933 39319 ft 420 kts 137°
2026-04-29 17:43 55.93230 -11.40121 39319 ft 421 kts 137°
2026-04-29 17:44 55.88822 -11.33289 39315 ft 419 kts 137°
2026-04-29 17:44 55.84416 -11.26483 39318 ft 420 kts 137°
2026-04-29 17:45 55.80003 -11.19684 39318 ft 420 kts 137°
2026-04-29 17:45 55.76313 -11.14022 39314 ft 416 kts 137°
2026-04-29 17:46 55.71965 -11.07361 39309 ft 416 kts 137°
2026-04-29 17:46 55.67572 -11.00652 39314 ft 417 kts 137°
2026-04-29 17:47 55.63177 -10.93963 39315 ft 416 kts 137°
2026-04-29 17:47 55.58782 -10.87295 39312 ft 416 kts 137°
2026-04-29 17:48 55.54380 -10.80635 39312 ft 417 kts 137°
2026-04-29 17:48 55.49973 -10.73990 39306 ft 417 kts 137°
2026-04-29 17:49 55.45561 -10.67355 39312 ft 417 kts 137°
2026-04-29 17:49 55.41150 -10.60743 39310 ft 417 kts 137°
2026-04-29 17:50 55.36734 -10.54141 39310 ft 416 kts 137°
2026-04-29 17:50 55.32317 -10.47561 39309 ft 417 kts 137°
2026-04-29 17:51 55.27905 -10.41008 39307 ft 417 kts 137°
2026-04-29 17:51 55.23670 -10.34734 39302 ft 417 kts 137°
2026-04-29 17:52 55.19236 -10.28188 39302 ft 417 kts 137°
2026-04-29 17:52 55.14802 -10.21660 39303 ft 417 kts 137°
2026-04-29 17:53 55.10364 -10.15146 39297 ft 417 kts 137°
2026-04-29 17:53 55.05948 -10.08686 39300 ft 412 kts 137°
2026-04-29 17:54 55.01679 -10.02018 39293 ft 412 kts 131°
2026-04-29 17:54 54.98117 -9.94271 39291 ft 409 kts 122°
2026-04-29 17:55 54.95224 -9.85756 39289 ft 409 kts 118°
2026-04-29 17:55 54.92401 -9.77216 39283 ft 406 kts 119°
2026-04-29 17:56 54.90734 -9.72228 39273 ft 405 kts 119°
2026-04-29 18:14 54.89252 -9.67811 39268 ft 404 kts 119°
2026-04-29 18:15 54.86470 -9.59553 39267 ft 402 kts 119°
2026-04-29 18:15 54.83639 -9.51173 39285 ft 404 kts 119°
2026-04-29 18:16 54.80764 -9.42687 39285 ft 406 kts 119°
2026-04-29 18:16 54.77914 -9.34311 39281 ft 406 kts 119°
2026-04-29 18:17 54.75023 -9.25843 39281 ft 406 kts 119°
2026-04-29 18:17 54.72150 -9.17454 39281 ft 404 kts 119°
2026-04-29 18:18 54.69284 -9.09115 39271 ft 402 kts 119°
2026-04-29 18:18 54.66445 -9.00885 39283 ft 402 kts 119°
2026-04-29 18:19 54.63532 -8.92467 39279 ft 408 kts 119°
2026-04-29 18:19 54.60609 -8.84047 39278 ft 408 kts 119°
2026-04-29 18:20 54.57794 -8.75968 39277 ft 408 kts 119°
2026-04-29 18:20 54.54842 -8.67523 39269 ft 408 kts 119°
2026-04-29 18:21 54.51842 -8.58971 39263 ft 408 kts 120°
2026-04-29 18:21 54.48901 -8.50616 39267 ft 408 kts 120°
2026-04-29 18:22 54.45957 -8.42278 39272 ft 408 kts 120°
2026-04-29 18:22 54.43279 -8.33754 39266 ft 408 kts 116°
2026-04-29 18:23 54.40709 -8.25064 39265 ft 408 kts 116°
2026-04-29 18:23 54.38107 -8.16325 39264 ft 409 kts 116°
2026-04-29 18:24 54.35507 -8.07657 39267 ft 409 kts 116°
2026-04-29 18:24 54.32916 -7.99053 39270 ft 408 kts 116°
2026-04-29 18:25 54.30428 -7.90820 39279 ft 403 kts 117°
2026-04-29 18:25 54.27831 -7.82260 39282 ft 405 kts 117°
2026-04-29 18:26 54.25249 -7.73780 39281 ft 405 kts 117°
2026-04-29 18:26 54.22639 -7.65240 39285 ft 405 kts 117°
2026-04-29 18:27 54.20029 -7.56730 39284 ft 405 kts 117°
2026-04-29 18:27 54.17411 -7.48221 39283 ft 405 kts 117°
2026-04-29 18:28 54.14807 -7.39790 39279 ft 403 kts 117°
2026-04-29 18:28 54.12194 -7.31356 39282 ft 402 kts 117°
2026-04-29 18:29 54.09574 -7.22932 39280 ft 402 kts 117°
2026-04-29 18:29 54.06949 -7.14524 39285 ft 402 kts 117°
2026-04-29 18:30 54.04744 -7.07481 39286 ft 402 kts 118°
2026-04-29 18:30 54.02168 -6.99277 39280 ft 403 kts 118°
2026-04-29 18:31 53.99518 -6.90872 39291 ft 403 kts 118°
2026-04-29 18:31 53.96862 -6.82476 39283 ft 403 kts 118°
2026-04-29 18:32 53.94202 -6.74095 39294 ft 403 kts 118°
2026-04-29 18:32 53.90195 -6.61525 39290 ft 402 kts 118°
2026-04-29 18:33 53.87531 -6.53204 39290 ft 402 kts 118°
2026-04-29 18:33 53.84877 -6.44942 39287 ft 402 kts 118°
2026-04-29 18:34 53.82633 -6.37976 39290 ft 402 kts 118°
2026-04-29 18:34 53.79494 -6.28268 39297 ft 406 kts 118°
2026-04-29 18:35 53.76772 -6.19879 39282 ft 407 kts 119°
2026-04-29 18:35 53.74123 -6.11747 39287 ft 408 kts 119°
2026-04-29 18:36 53.71378 -6.03348 39293 ft 409 kts 119°
2026-04-29 18:36 53.68623 -5.94947 39277 ft 409 kts 119°
2026-04-29 18:37 53.65918 -5.86726 39273 ft 407 kts 119°
2026-04-29 18:37 53.63164 -5.78383 39276 ft 407 kts 119°
2026-04-29 18:38 53.60404 -5.70051 39280 ft 408 kts 120°
2026-04-29 18:38 53.57615 -5.61661 39274 ft 412 kts 120°
2026-04-29 18:39 53.55109 -5.53023 39267 ft 411 kts 111°
2026-04-29 18:39 53.53701 -5.43697 39259 ft 413 kts 100°
2026-04-29 18:40 53.53320 -5.34056 39259 ft 414 kts 95°
2026-04-29 18:40 53.53097 -5.24395 39250 ft 413 kts 95°
2026-04-29 18:41 53.52550 -5.05026 39271 ft 418 kts 96°
2026-04-29 18:42 53.52240 -4.95480 39272 ft 417 kts 96°
2026-04-29 18:42 53.51920 -4.85756 39274 ft 417 kts 96°
2026-04-29 18:43 53.51597 -4.76023 39271 ft 417 kts 96°
2026-04-29 18:43 53.51268 -4.66296 39271 ft 417 kts 96°
2026-04-29 18:44 53.50931 -4.56577 39263 ft 417 kts 96°
2026-04-29 18:44 53.50586 -4.46858 39264 ft 417 kts 96°
2026-04-29 18:45 53.50233 -4.37133 39265 ft 417 kts 96°
2026-04-29 18:45 53.49882 -4.27699 39275 ft 417 kts 96°
2026-04-29 18:46 53.49503 -4.17712 39276 ft 418 kts 96°
2026-04-29 18:46 53.49125 -4.07969 39274 ft 418 kts 96°
2026-04-29 18:47 53.48540 -3.98267 39275 ft 417 kts 102°
2026-04-29 18:47 53.47206 -3.89119 39278 ft 415 kts 110°
2026-04-29 18:48 53.45307 -3.79966 39282 ft 415 kts 111°
2026-04-29 18:48 53.43412 -3.70802 39295 ft 416 kts 111°
2026-04-29 18:49 53.41479 -3.61654 39299 ft 416 kts 113°
2026-04-29 18:49 53.39063 -3.52891 39287 ft 413 kts 117°
2026-04-29 18:50 53.36566 -3.44246 39299 ft 413 kts 117°
2026-04-29 18:50 53.34063 -3.35586 39304 ft 413 kts 117°
2026-04-29 18:51 53.31710 -3.27466 39314 ft 413 kts 117°
2026-04-29 18:51 53.29200 -3.18825 39316 ft 413 kts 117°
2026-04-29 18:52 53.26682 -3.10194 39317 ft 413 kts 117°
2026-04-29 18:52 53.24169 -3.01608 39318 ft 408 kts 118°
2026-04-29 18:53 53.21674 -2.93117 39322 ft 408 kts 118°
2026-04-29 18:53 53.19133 -2.84508 39319 ft 413 kts 118°
2026-04-29 18:54 53.16790 -2.76595 39319 ft 419 kts 118°
2026-04-29 18:54 53.14192 -2.67844 39323 ft 422 kts 118°
2026-04-29 18:55 53.11596 -2.59132 39118 ft 414 kts 118°
2026-04-29 18:55 53.10331 -2.54896 38928 ft 404 kts 118°
2026-04-29 18:55 53.09084 -2.50731 38606 ft 401 kts 118°
2026-04-29 18:56 53.07919 -2.46849 38347 ft 406 kts 118°
2026-04-29 18:56 53.06669 -2.42696 38067 ft 409 kts 118°
2026-04-29 18:56 53.05395 -2.38465 37796 ft 409 kts 118°
2026-04-29 18:56 53.04010 -2.34359 37511 ft 407 kts 126°
2026-04-29 18:57 53.02252 -2.30684 37239 ft 407 kts 134°
2026-04-29 18:57 53.00153 -2.27531 36974 ft 407 kts 143°
2026-04-29 18:57 52.97779 -2.24922 36727 ft 410 kts 147°
2026-04-29 18:57 52.96202 -2.23287 36557 ft 413 kts 147°